Regional Weather Roundup
Issued by NWS Mt. Holly, NJ

Home | Current Version | Previous Version | Text Only | Print | Product List | Glossary On
Versions: 1 2 3 4 5 6 7 8 9 10 11 12 13 14 15 16 17 18 19 20 21 22 23 24 25 26 27 28 29 30 31 32 33 34 35 36 37 38 39 40 41 42 43 44 45 46 47 48 49 50
000
ASUS41 KPHI 310412
RWRPHI

REGIONAL WEATHER ROUNDUP
NATIONAL WEATHER SERVICE MOUNT HOLLY NJ
1200 AM EDT FRI JUL 31 2015

NOTE:  "FAIR" INDICATES FEW OR NO CLOUDS BELOW 12,000 FEET WITH NO
SIGNIFICANT WEATHER AND/OR OBSTRUCTIONS TO VISIBILITY.

 * = STATION DOES NOT REPORT PRECIPITATION (E.G. RAIN, SNOW, ETC.)
        OR FOG.

NJZ015>026-310500-
SOUTHERN NEW JERSEY

CITY           SKY/WX    TMP DP  RH WIND       PRES   REMARKS
POMONA         MOCLDY    76  73  91 SW6       29.88R
RIO GRANDE*    CLOUDY    75  72  88 SW5       29.90R
MILLVILLE      MOCLDY    75  73  93 W5        29.89R FOG
WRIGHTSTOWN    MOCLDY    74  74 100 W7        29.84S
MOUNT HOLLY    PTCLDY    75  73  93 SW5       29.86S FOG
TRENTON        CLEAR     75  72  90 SW6       29.86R FOG

$$
NJZ001>014-310500-
NORTHERN NEW JERSEY

CITY           SKY/WX    TMP DP  RH WIND       PRES   REMARKS
SUSSEX         CLEAR     70  68  93 W3        29.87R
ANDOVER*         N/A     71  71 100 CALM      29.88R
MORRISTOWN     PTCLDY    72  68  88 CALM      29.85S FOG
NEWARK         MOCLDY    76  73  91 SW6       29.84S
TETERBORO      CLEAR     75  72  88 S5        29.83S
CALDWELL       CLEAR     75  72  90 CALM      29.85R
SOMERVILLE     FOG       71  69  93 CALM      29.84S VSB 1/4
ALLAIRE*       PTCLDY    73  70  88 W5        29.86R
TOMS RIVER*      N/A     73  73 100 W7        29.86S

$$
PAZ043-044-047-054-055-060>062-066>071-310500-
EASTERN PENNSYLVANIA

CITY           SKY/WX    TMP DP  RH WIND       PRES   REMARKS
PHILADELPHIA   MOCLDY    79  73  83 W9        29.88R
NORTH PHILA    PTCLDY    76  70  82 W6        29.88S
BLUE BELL      CLEAR     72  70  94 CALM      29.87S
DOYLESTOWN     CLEAR     72  71  97 CALM      29.87S
QUAKERTOWN*    PTCLDY    70  70 100 CALM      29.89S
POTTSTOWN      PTCLDY    71  71 100 CALM      29.89S FOG
LANCASTER      CLEAR     71  63  75 W5        29.90R
COATESVILLE    PTCLDY    72  72 100 W3        29.92R FOG
READING        PTCLDY    74  65  73 W6        29.89R
ALLENTOWN      PTCLDY    70  65  84 SW6       29.88R
MOUNT POCONO   CLEAR     66  59  78 NW5       29.95R
HAZLETON       MOCLDY    70  59  68 W3        29.98R
WILKES BARRE   CLEAR     69  62  78 SE3       29.91R

$$
DEZALL-MDZ008-012-015-019-020-310500-
DELAWARE AND EASTERN MARYLAND

CITY           SKY/WX    TMP DP  RH WIND       PRES   REMARKS
WILMINGTON     PTCLDY    76  74  93 W3        29.89S FOG
DOVER          MOCLDY    75  75 100 SW5       29.87S
GEORGETOWN     CLOUDY    76  74  93 SW5       29.90R
EASTON         MOCLDY    76  76 100 CALM      29.93S
PATUXENT       MOCLDY    77  74  90 MISG      29.90S
OCEAN CITY     CLOUDY    77  75  93 CALM      29.89S FOG
WALLOPS ISLAND TSTM      77  76  96 SW7       29.90S FOG
CAMBRIDGE      MOCLDY    73  72  94 CALM      29.90R
SALISBURY      CLOUDY    76  75  97 CALM      29.90R

$$
PAZ001-021-NYZ056-072-MDZ011-DCZ001-310500-
OTHER NEARBY LOCATIONS

CITY           SKY/WX    TMP DP  RH WIND       PRES   REMARKS
HARRISBURG     PTCLDY    76  62  62 NW7       29.90R
STATE COLLEGE  CLEAR     71  56  59 W3        29.98S
WILLIAMSPORT   CLEAR     72  60  66 W9        29.91R
BINGHAMTON     CLEAR     68  56  65 W8        29.93S
NEW YORK CITY  CLEAR     77  72  84 VRB5      29.87S HAZE
BALTIMORE      PTCLDY    74  73  97 CALM      29.90R
WASHINGTON DC  CLEAR     81  73  76 NW6       29.91S

$$


USA.gov is the U.S. government's official web portal to all federal, state and local government web resources and services.